Time,TemperatureF,DewpointF,PressureIn,WindDirection,WindDirectionDegrees,WindSpeedMPH,WindSpeedGustMPH,Humidity,HourlyPrecipIn,Conditions,Clouds,dailyrainin,SolarRadiationWatts/m^2,SoftwareType,DateUTC
2013-03-10 00:01:00,41.0,24.0,-100.00,SSE,159,5.0,9.0,51,0.00,,,0.00,1.000000,,2013-03-10 08:01:00,
2013-03-10 00:32:00,39.0,26.0,-100.00,SSW,195,7.0,10.0,59,0.00,,,0.00,1.000000,,2013-03-10 08:32:00,
2013-03-10 00:42:00,39.0,26.0,-100.00,SSW,195,7.0,10.0,59,0.00,,,0.00,1.000000,,2013-03-10 08:42:00,
2013-03-10 00:51:00,39.0,26.0,-100.00,SSW,195,7.0,10.0,59,0.00,,,0.00,1.000000,,2013-03-10 08:51:00,
2013-03-10 01:01:00,39.0,26.0,-100.00,SSW,195,7.0,10.0,59,0.00,,,0.00,1.000000,,2013-03-10 09:01:00,
2013-03-10 01:32:00,36.0,26.0,-100.00,SSW,208,7.0,10.0,66,0.00,,,0.00,1.000000,,2013-03-10 09:32:00,
2013-03-10 01:42:00,36.0,26.0,-100.00,SSW,208,7.0,10.0,66,0.00,,,0.00,1.000000,,2013-03-10 09:42:00,
2013-03-10 01:51:00,36.0,26.0,-100.00,SSW,208,7.0,10.0,66,0.00,,,0.00,1.000000,,2013-03-10 09:51:00,
2013-03-10 03:01:00,36.0,26.0,-100.00,SSW,208,7.0,10.0,66,0.00,,,0.00,1.000000,,2013-03-10 10:01:00,
2013-03-10 03:32:00,34.0,23.0,-100.00,SSW,210,6.0,9.0,64,0.00,,,0.00,1.000000,,2013-03-10 10:32:00,
2013-03-10 03:42:00,34.0,23.0,-100.00,SSW,210,6.0,9.0,64,0.00,,,0.00,1.000000,,2013-03-10 10:42:00,
2013-03-10 03:52:00,34.0,23.0,-100.00,SSW,210,6.0,9.0,64,0.00,,,0.00,1.000000,,2013-03-10 10:52:00,
2013-03-10 04:01:00,34.0,23.0,-100.00,SSW,210,6.0,9.0,64,0.00,,,0.00,1.000000,,2013-03-10 11:01:00,
2013-03-10 06:32:00,28.0,24.0,-100.00,West,259,1.0,4.0,83,-99.99,,,0.00,1.000000,,2013-03-10 13:32:00,
2013-03-10 06:42:00,28.0,24.0,-100.00,West,259,1.0,4.0,83,-99.99,,,0.00,1.000000,,2013-03-10 13:42:00,
2013-03-10 06:52:00,28.0,24.0,-100.00,West,259,1.0,4.0,83,-99.99,,,0.00,1.000000,,2013-03-10 13:52:00,
2013-03-10 07:01:00,28.0,24.0,-100.00,West,259,1.0,4.0,83,-99.99,,,0.00,1.000000,,2013-03-10 14:01:00,
2013-03-10 07:32:00,28.0,24.0,-100.00,NW,304,1.0,4.0,84,0.00,,,0.00,1.000000,,2013-03-10 14:32:00,
2013-03-10 07:42:00,28.0,24.0,-100.00,NW,304,1.0,4.0,84,0.00,,,0.00,1.000000,,2013-03-10 14:42:00,
2013-03-10 07:52:00,28.0,24.0,-100.00,NW,304,1.0,4.0,84,0.00,,,0.00,1.000000,,2013-03-10 14:52:00,
2013-03-10 08:01:00,28.0,24.0,-100.00,NW,304,1.0,4.0,84,0.00,,,0.00,1.000000,,2013-03-10 15:01:00,
2013-03-10 08:32:00,29.0,25.0,-100.00,SW,228,1.0,4.0,85,0.00,,,0.00,20.000000,,2013-03-10 15:32:00,
2013-03-10 08:42:00,29.0,25.0,-100.00,SW,228,1.0,4.0,85,0.00,,,0.00,20.000000,,2013-03-10 15:42:00,
2013-03-10 08:52:00,29.0,25.0,-100.00,SW,228,1.0,4.0,85,0.00,,,0.00,20.000000,,2013-03-10 15:52:00,
2013-03-10 09:01:00,29.0,25.0,-100.00,SW,228,1.0,4.0,85,0.00,,,0.00,20.000000,,2013-03-10 16:01:00,
2013-03-10 09:32:00,36.0,29.0,-100.00,NE,45,2.0,4.0,76,0.00,,,0.00,123.000000,,2013-03-10 16:32:00,
2013-03-10 09:42:00,36.0,29.0,-100.00,NE,45,2.0,4.0,76,0.00,,,0.00,123.000000,,2013-03-10 16:42:00,
2013-03-10 09:52:00,36.0,29.0,-100.00,NE,45,2.0,4.0,76,0.00,,,0.00,123.000000,,2013-03-10 16:52:00,
2013-03-10 10:01:00,36.0,29.0,-100.00,NE,45,2.0,4.0,76,0.00,,,0.00,123.000000,,2013-03-10 17:01:00,
2013-03-10 12:32:00,47.0,29.0,-100.00,NNE,14,3.0,5.0,49,-99.99,,,0.00,283.000000,,2013-03-10 19:32:00,
2013-03-10 12:42:00,47.0,29.0,-100.00,NNE,14,3.0,5.0,49,-99.99,,,0.00,283.000000,,2013-03-10 19:42:00,
2013-03-10 12:53:00,47.0,29.0,-100.00,NNE,14,3.0,5.0,49,-99.99,,,0.00,283.000000,,2013-03-10 19:53:00,
2013-03-10 13:01:00,47.0,29.0,-100.00,NNE,14,3.0,5.0,49,-99.99,,,0.00,283.000000,,2013-03-10 20:01:00,
2013-03-10 13:32:00,54.0,31.0,-100.00,NE,48,3.0,6.0,42,0.00,,,0.00,544.000000,,2013-03-10 20:32:00,
2013-03-10 13:43:00,54.0,31.0,-100.00,NE,48,3.0,6.0,42,0.00,,,0.00,544.000000,,2013-03-10 20:43:00,
2013-03-10 13:53:00,54.0,31.0,-100.00,NE,48,3.0,6.0,42,0.00,,,0.00,544.000000,,2013-03-10 20:53:00,
2013-03-10 14:02:00,54.0,31.0,-100.00,NE,48,3.0,6.0,42,0.00,,,0.00,544.000000,,2013-03-10 21:02:00,
2013-03-10 14:33:00,58.0,31.0,-100.00,NE,51,3.0,7.0,35,0.00,,,0.00,473.000000,,2013-03-10 21:33:00,
2013-03-10 14:43:00,58.0,31.0,-100.00,NE,51,3.0,7.0,35,0.00,,,0.00,473.000000,,2013-03-10 21:43:00,
2013-03-10 14:52:00,58.0,31.0,-100.00,NE,51,3.0,7.0,35,0.00,,,0.00,473.000000,,2013-03-10 21:52:00,
2013-03-10 15:02:00,58.0,31.0,-100.00,NE,51,3.0,7.0,35,0.00,,,0.00,473.000000,,2013-03-10 22:02:00,
2013-03-10 15:32:00,60.0,29.0,-100.00,WSW,237,2.0,6.0,31,0.00,,,0.00,375.000000,,2013-03-10 22:32:00,
2013-03-10 15:43:00,60.0,29.0,-100.00,WSW,237,2.0,6.0,31,0.00,,,0.00,375.000000,,2013-03-10 22:43:00,
2013-03-10 15:53:00,60.0,29.0,-100.00,WSW,237,2.0,6.0,31,0.00,,,0.00,375.000000,,2013-03-10 22:53:00,
2013-03-10 16:02:00,60.0,29.0,-100.00,WSW,237,2.0,6.0,31,0.00,,,0.00,375.000000,,2013-03-10 23:02:00,
2013-03-10 16:33:00,62.0,32.0,-100.00,NE,51,4.0,9.0,32,0.00,,,0.00,303.000000,,2013-03-10 23:33:00,
2013-03-10 16:43:00,62.0,32.0,-100.00,NE,51,4.0,9.0,32,0.00,,,0.00,303.000000,,2013-03-10 23:43:00,
2013-03-10 16:52:00,62.0,32.0,-100.00,NE,51,4.0,9.0,32,0.00,,,0.00,303.000000,,2013-03-10 23:52:00,
2013-03-10 17:02:00,62.0,32.0,-100.00,NE,51,4.0,9.0,32,0.00,,,0.00,303.000000,,2013-03-11 00:02:00,
2013-03-10 17:33:00,59.0,38.0,-100.00,NNW,342,9.0,17.0,46,0.00,,,0.00,101.000000,,2013-03-11 00:33:00,
2013-03-10 17:43:00,59.0,38.0,-100.00,NNW,342,9.0,17.0,46,0.00,,,0.00,101.000000,,2013-03-11 00:43:00,
2013-03-10 17:53:00,59.0,38.0,-100.00,NNW,342,9.0,17.0,46,0.00,,,0.00,101.000000,,2013-03-11 00:53:00,
2013-03-10 18:02:00,59.0,38.0,-100.00,NNW,342,9.0,17.0,46,0.00,,,0.00,101.000000,,2013-03-11 01:02:00,
2013-03-10 18:33:00,56.0,39.0,-100.00,North,353,7.0,13.0,52,0.00,,,0.00,56.000000,,2013-03-11 01:33:00,
2013-03-10 18:43:00,56.0,39.0,-100.00,North,353,7.0,13.0,52,0.00,,,0.00,56.000000,,2013-03-11 01:43:00,
2013-03-10 18:53:00,56.0,39.0,-100.00,North,353,7.0,13.0,52,0.00,,,0.00,56.000000,,2013-03-11 01:53:00,
2013-03-10 19:02:00,56.0,39.0,-100.00,North,353,7.0,13.0,52,0.00,,,0.00,56.000000,,2013-03-11 02:02:00,
2013-03-10 19:32:00,53.0,39.0,-100.00,North,356,3.0,9.0,59,0.00,,,0.00,15.000000,,2013-03-11 02:32:00,
2013-03-10 19:42:00,53.0,39.0,-100.00,North,356,3.0,9.0,59,0.00,,,0.00,15.000000,,2013-03-11 02:42:00,
2013-03-10 19:52:00,53.0,39.0,-100.00,North,356,3.0,9.0,59,0.00,,,0.00,15.000000,,2013-03-11 02:52:00,
2013-03-10 20:02:00,53.0,39.0,-100.00,North,356,3.0,9.0,59,0.00,,,0.00,15.000000,,2013-03-11 03:02:00,
2013-03-10 20:32:00,51.0,40.0,-100.00,NNE,29,3.0,7.0,65,0.00,,,0.00,1.000000,,2013-03-11 03:32:00,
2013-03-10 20:43:00,51.0,40.0,-100.00,NNE,29,3.0,7.0,65,0.00,,,0.00,1.000000,,2013-03-11 03:43:00,
2013-03-10 20:52:00,51.0,40.0,-100.00,NNE,29,3.0,7.0,65,0.00,,,0.00,1.000000,,2013-03-11 03:52:00,
2013-03-10 21:02:00,51.0,40.0,-100.00,NNE,29,3.0,7.0,65,0.00,,,0.00,1.000000,,2013-03-11 04:02:00,
2013-03-10 21:33:00,49.0,39.0,-100.00,NNE,22,3.0,6.0,69,0.00,,,0.00,1.000000,,2013-03-11 04:33:00,
2013-03-10 21:43:00,49.0,39.0,-100.00,NNE,22,3.0,6.0,69,0.00,,,0.00,1.000000,,2013-03-11 04:43:00,
2013-03-10 21:53:00,49.0,39.0,-100.00,NNE,22,3.0,6.0,69,0.00,,,0.00,1.000000,,2013-03-11 04:53:00,
2013-03-10 22:02:00,49.0,39.0,-100.00,NNE,22,3.0,6.0,69,0.00,,,0.00,1.000000,,2013-03-11 05:02:00,
2013-03-10 22:32:00,46.0,39.0,-100.00,South,185,2.0,5.0,75,0.00,,,0.00,1.000000,,2013-03-11 05:32:00,
2013-03-10 22:43:00,46.0,39.0,-100.00,South,185,2.0,5.0,75,0.00,,,0.00,1.000000,,2013-03-11 05:43:00,
2013-03-10 22:52:00,46.0,39.0,-100.00,South,185,2.0,5.0,75,0.00,,,0.00,1.000000,,2013-03-11 05:52:00,
2013-03-10 23:02:00,46.0,39.0,-100.00,South,185,2.0,5.0,75,0.00,,,0.00,1.000000,,2013-03-11 06:02:00,
2013-03-10 23:33:00,44.0,38.0,-100.00,SW,227,2.0,3.0,79,0.00,,,0.00,1.000000,,2013-03-11 06:33:00,
2013-03-10 23:42:00,44.0,38.0,-100.00,SW,227,2.0,3.0,79,0.00,,,0.00,1.000000,,2013-03-11 06:42:00,
2013-03-10 23:53:00,44.0,38.0,-100.00,SW,227,2.0,3.0,79,0.00,,,0.00,1.000000,,2013-03-11 06:53:00,